Location: Cactus School
(34.5700°N, 118.0931°W)
Time: 13:11:01
(UTC-08:00)

Vanguard 2 - All Passes

Search period start: 21 November 2017 00:00
Search period end: 01 December 2017 00:00
Orbit: 553 x 2940 km, 32.9° (Epoch: 21 November)

Date Brightness Start Highest point End Pass type
(mag) Time Alt. Az. Time Alt. Az. Time Alt. Az.
21 Nov - 01:14:59 10° W 01:24:26 81° S 01:40:02 10° ESE visible
21 Nov - 03:23:54 10° W 03:35:57 58° SSW 03:52:55 10° SE visible
21 Nov - 05:35:15 10° W 05:47:34 30° SW 06:01:40 10° SSE visible
21 Nov - 21:18:17 10° SW 21:23:23 41° SSE 21:31:24 10° E night (unlit)
21 Nov - 23:25:05 10° WSW 23:32:13 79° S 23:44:35 10° E visible
22 Nov - 01:33:07 10° W 01:42:44 76° SSW 01:58:28 10° ESE visible
22 Nov - 03:42:15 10° W 03:54:11 49° SSW 04:10:34 10° SE visible
22 Nov - 05:54:50 10° W 06:05:38 22° SW 06:17:39 10° S visible
22 Nov - 19:32:17 10° SSE 19:34:00 12° SE 19:35:55 10° ESE night (unlit)
22 Nov - 21:35:57 10° SW 21:41:16 53° SSE 21:49:56 10° E night (unlit)
22 Nov - 23:43:09 10° W 23:50:26 82° S 00:03:07 10° E visible
23 Nov - 01:51:17 10° W 02:01:02 68° SSW 02:16:45 10° ESE visible
23 Nov - 04:00:46 10° W 04:12:23 40° SSW 04:27:53 10° SSE visible
23 Nov - 06:15:37 10° WSW 06:23:42 16° SW 06:32:25 10° S daylight
23 Nov - 19:48:19 10° S 19:51:36 19° SE 19:55:46 10° E visible
23 Nov - 21:53:47 10° WSW 21:59:16 64° SSE 22:08:24 10° E night (unlit)
24 Nov - 00:01:14 10° W 00:08:41 81° S 00:21:37 10° E visible
24 Nov - 02:09:27 10° W 02:19:18 60° SSW 02:34:49 10° SE visible
24 Nov - 04:19:32 10° W 04:30:34 32° SSW 04:44:47 10° SSE visible
24 Nov - 20:05:24 10° SSW 20:09:18 28° SSE 20:14:39 10° E night (unlit)
24 Nov - 22:11:44 10° WSW 22:17:22 74° S 22:26:50 10° E night (unlit)
25 Nov - 00:19:19 10° W 00:26:57 76° S 00:40:04 10° ESE visible
25 Nov - 02:27:43 10° W 02:37:33 51° SSW 02:52:38 10° SE visible
25 Nov - 04:38:45 10° W 04:48:45 24° SW 05:01:05 10° SSE visible
25 Nov - 20:22:54 10° SW 20:27:07 39° SSE 20:33:13 10° E night (unlit)
25 Nov - 22:29:46 10° W 22:35:30 79° S 22:45:17 10° E night (unlit)
26 Nov - 00:37:26 10° W 00:45:10 69° SSW 00:58:25 10° ESE visible
26 Nov - 02:46:06 10° W 02:55:47 42° SSW 03:10:08 10° SE visible
26 Nov - 04:58:50 10° WSW 05:06:57 18° SW 05:16:28 10° S visible
26 Nov - 18:36:28 10° SSE 18:37:42 11° SE 18:38:59 10° SE visible
26 Nov - 20:40:38 10° WSW 20:45:02 52° SSE 20:51:38 10° E night (unlit)
26 Nov - 22:47:48 10° W 22:53:41 80° S 23:03:45 10° E night (unlit)
27 Nov - 00:55:33 10° W 01:03:24 61° SSW 01:16:36 10° ESE visible
27 Nov - 03:04:43 10° W 03:14:02 33° SSW 03:27:14 10° SSE visible
27 Nov - 05:21:27 10° SW 05:25:14 11° SW 05:29:16 10° SSW visible
27 Nov - 18:52:36 10° SSW 18:55:27 18° SSE 18:58:42 10° ESE visible
27 Nov - 20:58:31 10° WSW 21:03:04 64° SSE 21:10:01 10° E night (unlit)
27 Nov - 23:05:52 10° W 23:11:53 76° S 23:22:10 10° ESE night (unlit)
28 Nov - 01:13:44 10° W 01:21:38 51° SSW 01:34:32 10° SE visible
28 Nov - 03:23:41 10° W 03:32:17 25° SSW 03:43:48 10° SSE visible
28 Nov - 19:09:48 10° SSW 19:13:16 27° SSE 19:17:26 10° E visible
28 Nov - 21:16:30 10° WSW 21:21:09 73° S 21:28:22 10° E night (unlit)
28 Nov - 23:23:56 10° W 23:30:03 70° S 23:40:31 10° ESE night (unlit)
29 Nov - 01:32:03 10° W 01:39:52 41° SSW 01:52:10 10° SE visible
29 Nov - 03:43:22 10° WSW 03:50:34 18° SSW 03:59:33 10° S visible
29 Nov - 19:27:24 10° SW 19:31:10 39° SSE 19:35:53 10° E visible
29 Nov - 21:34:32 10° W 21:39:16 77° S 21:46:44 10° E night (unlit)
29 Nov - 23:42:02 10° W 23:48:14 60° SSW 23:58:43 10° ESE night (unlit)
30 Nov - 01:50:32 10° W 01:58:06 32° SSW 02:09:27 10° SSE visible
30 Nov - 04:04:58 10° SW 04:08:54 12° SSW 04:13:17 10° SSW visible
30 Nov - 17:39:39 10° S 17:41:33 13° SSE 17:43:26 10° ESE visible
30 Nov - 19:45:13 10° WSW 19:49:08 52° SSE 19:54:12 10° E visible
30 Nov - 21:52:35 10° W 21:57:24 75° S 22:05:05 10° E night (unlit)
